Weather in Harare

Zimbabwe     17°49′45″S   31°03′07″E
temp.,
°C
wind,
m/s
gust,
m/s
humid.,
%
clouds,
%
prec.,
mm/h
press.,
hPa
HPBL,
m
30 november, tue
tue3023:00+22ene49434 0.0 1014406
02:00+20ne48496 0.0 1014307
05:00+18ne37520 0.0 1015195
08:00+24ene35355 0.0 1015621
11:00+30ene45182 0.0 10122456
14:00+32ene45154 0.0 10093606
17:00+30ne55165 0.0 10092479
20:00+25ne511255 0.0 1012613
1 december, wed
wed123:00+22ene411310 0.0 1014476
02:00+20ene411350 0.0 1012395
05:00+19ene410410 0.0 1014276
08:00+25ene58290 0.0 1015752
11:00+30ene45190 0.0 10132529
14:00+32ene44152 0.0 10093513
17:00+31ne55155 0.0 10093456
20:00+25ene511225 0.0 1012767
2 december, thu
thu223:00+22e613330 0.0 1013650
02:00+21ene512402 0.0 1012441
05:00+19ne412484 0.0 1014379
08:00+24ne69336 0.0 1015715
11:00+30ne55223 0.0 10121960
14:00+32ene442020 0.0 10083605
17:00+31ne54206 0.0 10073128
20:00+26ne493143 0.0 1010480
3 december, fri
fri323:00+24ne612405 0.0 1012822
02:00+22ene512620 0.0 1012590
05:00+21ne412624 0.0 1014536
08:00+25ne684612 0.0 10151018
11:00+30ne453021 0.0 10132874
14:00+31ne442528 0.0 10102614
17:00+30ene55271 0.0 10091111
20:00+25e494332 0.1 1012280
4 december, sat
sat423:00+24ene411435 0.0 1013421
02:00+23ene4114623 0.0 1012431
05:00+22ene512545 0.0 1014510
08:00+27ene69380 0.0 10141113
11:00+31ne552651 0.0 10133461
14:00+30e652774 0.0 10112028
17:00+29e78281 0.0 10101255
20:00+25e4113695 0.0 1013353